Weather in Obluchie

Russia / Jewish Autonomous Oblast     49°01′08″N   131°03′14″E
temp.,
°C
wind,
m/s
gust,
m/s
humid.,
%
clouds,
%
prec.,
mm/h
press.,
hPa
HPBL,
m
24 may, tue
tue2401:00+11ssw1198100 7.2 100334
04:00+11s1198100 7.4 100325
07:00+8w4997100 0.4 1006454
10:00+10wnw4783100 0.4 1007935
13:00+11wnw4765100 0.1 10081270
16:00+13wnw5864100 0.3 10081490
19:00+11nw4669100 0.1 10091023
22:00+5nw239557 0.1 101170
25 may, wed
wed2501:00+6nw249499 0.0 1011232
04:00+7wnw118791 0.0 101262
07:00+7e0188100 0.0 1012126
10:00+13sse1260100 0.0 1013910
13:00+14s1257100 0.0 1011864
16:00+18se2346100 0.0 10101421
19:00+17s2354100 0.0 1009323
22:00+10se1180100 0.0 101111
26 may, thu
thu2601:00+8e2285100 0.0 101117
04:00+7e1190100 0.0 101110
07:00+10ene117513 0.0 101054
10:00+18w0245100 0.0 1008827
13:00+22sse1330100 0.0 10061818
16:00+23se232799 0.0 10042037
19:00+21se2441100 0.0 1003194
22:00+13e1164100 0.0 100411
27 may, fri
fri2701:00+12e2168100 0.0 100414
04:00+11e2171100 0.0 100314
07:00+13e2267100 0.0 100268
10:00+19se3547100 0.0 1001930
13:00+22se343182 0.0 10001846
16:00+23se4332100 0.0 9992137
19:00+18sse3557100 0.0 999464
22:00+13ese278261 0.1 999214
28 may, sat
sat2801:00+13ese2686100 0.1 999184
04:00+12ese278996 0.1 999273
07:00+13ese388669 0.0 999384
10:00+16se467684 0.2 999631
13:00+19s346316 1.1 9981235
16:00+19ese336793 3.2 998999
19:00+15ese49945 4.9 999417
22:00+13ese5129599 5.1 1001432